TimeEDT,TemperatureF,Dew PointF,Humidity,Sea Level PressureIn,VisibilityMPH,Wind Direction,Wind SpeedMPH,Gust SpeedMPH,PrecipitationIn,Events,Conditions,WindDirDegrees,DateUTC
12:53 AM,54.0,50.0,86,29.98,10.0,SSE,4.6,-,N/A,,Overcast,150,2012-10-02 04:53:00
1:53 AM,55.9,46.9,72,29.99,10.0,Calm,Calm,-,N/A,,Overcast,0,2012-10-02 05:53:00
3:00 AM,55.4,46.4,72,29.98,10.0,Calm,Calm,-,N/A,,Overcast,0,2012-10-02 07:00:00
3:53 AM,55.9,48.9,77,29.99,10.0,Calm,Calm,-,N/A,,Overcast,0,2012-10-02 07:53:00
4:53 AM,55.9,50.0,80,29.99,10.0,South,3.5,-,N/A,,Overcast,170,2012-10-02 08:53:00
5:53 AM,55.9,48.9,77,29.99,10.0,SE,3.5,-,N/A,,Overcast,140,2012-10-02 09:53:00
6:53 AM,55.0,48.0,77,30.00,10.0,ESE,4.6,-,N/A,,Overcast,120,2012-10-02 10:53:00
7:53 AM,55.0,48.9,80,30.01,10.0,ESE,4.6,-,0.01,,Overcast,120,2012-10-02 11:53:00
8:53 AM,55.0,50.0,83,30.04,9.0,ESE,4.6,-,0.00,Rain,Light Rain,120,2012-10-02 12:53:00
9:53 AM,55.9,51.1,84,30.03,10.0,ESE,5.8,-,0.01,,Overcast,120,2012-10-02 13:53:00
10:49 AM,55.4,51.8,88,30.04,6.0,SE,5.8,-,0.02,Rain,Rain,130,2012-10-02 14:49:00
10:53 AM,55.0,51.1,86,30.04,4.0,ESE,5.8,-,0.02,Rain,Rain,110,2012-10-02 14:53:00
11:27 AM,53.6,51.8,94,30.04,1.8,SE,4.6,-,0.11,Rain,Rain,130,2012-10-02 15:27:00
11:40 AM,53.6,53.6,100,30.03,1.2,East,3.5,-,0.25,Rain,Heavy Rain,80,2012-10-02 15:40:00
11:53 AM,54.0,53.1,97,30.04,2.0,Calm,Calm,-,0.29,Rain,Light Rain,0,2012-10-02 15:53:00
12:29 PM,53.6,53.6,100,30.04,1.8,SE,8.1,-,0.14,Rain,Rain,140,2012-10-02 16:29:00
12:53 PM,54.0,53.1,97,30.03,1.5,ESE,6.9,-,0.29,Rain,Heavy Rain,120,2012-10-02 16:53:00
1:05 PM,53.6,53.6,100,30.02,0.8,SE,6.9,-,0.14,Rain,Heavy Rain,130,2012-10-02 17:05:00
1:14 PM,53.6,53.6,100,30.03,1.0,SE,4.6,-,0.22,Rain,Rain,140,2012-10-02 17:14:00
1:23 PM,53.6,53.6,100,30.02,3.0,SE,5.8,-,0.23,Rain,Light Rain,140,2012-10-02 17:23:00
1:35 PM,55.4,53.6,94,30.02,5.0,SE,5.8,-,0.23,Rain,Light Rain,130,2012-10-02 17:35:00
1:42 PM,55.4,53.6,94,30.02,6.0,SE,5.8,-,0.23,Rain,Light Rain,130,2012-10-02 17:42:00
1:53 PM,55.0,54.0,96,30.01,6.0,ESE,5.8,-,0.24,Rain,Light Rain,120,2012-10-02 17:53:00
2:53 PM,55.9,54.0,93,30.01,5.0,ESE,8.1,-,0.00,Rain,Light Rain,110,2012-10-02 18:53:00
3:16 PM,55.4,55.4,100,30.00,2.5,East,4.6,-,0.00,Rain,Light Rain,90,2012-10-02 19:16:00
3:35 PM,55.4,55.4,100,30.00,0.8,ESE,8.1,-,0.01,Rain,Light Rain,120,2012-10-02 19:35:00
3:53 PM,55.9,55.0,97,30.00,1.2,ESE,5.8,-,0.02,Rain,Light Rain,120,2012-10-02 19:53:00
4:10 PM,55.4,55.4,100,29.99,2.0,East,4.6,-,0.00,Rain,Light Rain,100,2012-10-02 20:10:00
4:17 PM,55.4,55.4,100,29.99,0.8,East,5.8,-,0.00,,Mist,100,2012-10-02 20:17:00
4:27 PM,55.4,55.4,100,29.99,0.2,ESE,8.1,-,0.00,Fog,Fog,110,2012-10-02 20:27:00
4:53 PM,55.9,55.0,97,29.99,0.2,East,4.6,-,0.00,Fog,Fog,100,2012-10-02 20:53:00
5:53 PM,57.0,55.9,96,29.99,0.2,East,3.5,-,N/A,Fog,Fog,100,2012-10-02 21:53:00
6:53 PM,57.0,55.9,96,30.00,0.2,ESE,3.5,-,N/A,Fog,Fog,120,2012-10-02 22:53:00
7:51 PM,57.2,57.2,100,30.01,0.5,East,4.6,-,N/A,Fog,Fog,90,2012-10-02 23:51:00
7:53 PM,57.9,57.0,97,30.01,0.5,East,5.8,-,N/A,Fog,Fog,90,2012-10-02 23:53:00
8:08 PM,57.2,57.2,100,30.01,0.2,East,5.8,-,N/A,Fog,Fog,90,2012-10-03 00:08:00
8:53 PM,57.9,57.9,100,30.02,0.2,East,5.8,-,0.01,Fog,Fog,100,2012-10-03 00:53:00
9:53 PM,57.9,57.9,100,30.03,0.2,ESE,3.5,-,N/A,Fog,Fog,110,2012-10-03 01:53:00
10:53 PM,59.0,57.9,96,30.03,0.2,East,4.6,-,N/A,Fog,Fog,100,2012-10-03 02:53:00
11:00 PM,59.0,57.2,94,30.03,0.5,East,4.6,-,N/A,Fog,Fog,100,2012-10-03 03:00:00
11:53 PM,59.0,57.9,96,30.03,0.5,East,3.5,-,0.01,Fog,Fog,100,2012-10-03 03:53:00